Lapse_Rate
5.6 7.7 10.1 9.2 6.5 6.5 6.5 6.5 6.5 6.5 6.5 7.5 7.8 7.1 6.7 7.4 6.6 6.5 9.8 10.1 9.9 10.0 9.4 8.1 5.7 5.6 5.6 6.0 5.8 6.4 6.0 5.7 5.7 5.9 6.5 6.5 6.5 6.7 6.8 6.8 6.8 6.9 6.8 7.1 6.8 6.7 6.6 6.6 6.7
10.0 9.8 9.4 7.5 6.5 6.5 6.5 6.5 6.5 6.5 7.1 7.9 7.8 7.7 7.1 6.5 8.5 8.9 9.3 9.9 10.2 10.0 9.7 9.3 5.4 5.7 5.8 6.4 6.0 6.4 6.2 6.4 6.5 6.6 6.7 6.7 6.7 6.8 6.9 6.9 7.1 7.1 6.8 6.7 7.1 6.9 6.6 6.6 6.5
9.5 9.9 7.1 6.5 6.5 6.5 6.5 6.5 6.5 6.9 7.7 7.6 7.3 8.0 7.6 7.3 8.9 9.1 9.9 10.1 10.1 9.9 9.6 6.9 5.8 5.9 6.1 6.5 6.2 6.4 6.7 6.7 6.8 6.7 6.6 6.9 6.8 6.6 6.9 6.8 6.5 6.5 6.7 7.1 6.9 6.7 6.8 6.9 6.6
9.5 8.5 7.7 6.5 6.5 6.5 6.5 6.5 6.8 6.7 7.6 7.8 7.8 6.6 8.4 9.1 9.0 9.7 10.1 10.1 9.9 10.0 9.4 5.6 6.1 6.3 6.4 6.3 6.6 6.4 6.6 6.6 6.6 6.5 6.6 6.6 6.7 6.6 6.5 6.5 6.5 6.7 6.9 7.1 6.9 6.9 6.8 7.0 6.7
9.2 7.6 6.5 6.5 6.5 6.5 6.5 6.8 7.1 6.5 7.0 7.3 7.6 6.8 7.7 8.9 9.8 10.0 10.0 9.9 9.8 9.7 9.6 8.9 6.5 6.3 6.5 6.3 6.8 6.6 6.6 6.5 6.4 6.2 6.6 7.0 6.7 6.6 6.9 6.8 6.9 6.8 7.0 7.3 7.1 6.9 6.8 6.4 6.3
6.7 6.8 6.5 6.5 6.5 6.5 6.6 7.2 7.0 6.7 6.9 7.4 7.6 7.5 7.6 9.3 9.5 9.8 10.1 9.7 9.7 10.0 9.7 9.1 6.4 6.4 6.5 6.4 6.5 6.4 6.5 6.5 6.3 6.4 6.6 7.1 6.8 7.1 7.4 7.2 7.1 7.0 7.0 7.1 7.2 6.7 6.3 5.9 5.9
6.7 6.5 6.5 6.5 6.5 6.5 6.5 7.4 6.7 6.8 7.1 6.8 8.0 6.5 8.2 9.0 9.6 9.9 9.7 9.8 9.7 9.7 9.9 9.5 9.3 6.9 6.5 6.3 6.5 6.5 6.4 6.4 6.6 6.6 6.6 6.7 7.0 7.1 7.3 7.2 7.1 7.0 7.3 7.0 6.8 6.5 6.1 6.0 5.7
7.7 6.5 6.5 6.5 6.5 6.5 6.8 7.2 7.5 7.1 6.8 8.4 8.6 6.7 7.1 9.0 9.7 10.0 9.8 9.3 8.8 9.8 10.1 9.6 9.4 9.5 9.4 9.0 6.5 6.5 6.5 6.5 6.6 6.6 6.5 6.6 7.0 7.3 7.4 6.8 7.0 7.2 7.3 7.1 6.9 6.4 6.1 5.7 5.6
8.4 6.5 6.5 6.5 6.5 6.5 7.2 6.6 7.6 8.2 7.7 8.0 8.2 8.5 9.0 9.5 9.8 9.7 9.3 8.8 8.7 9.7 10.0 9.8 8.0 8.0 7.8 9.0 7.5 6.7 6.5 6.5 6.7 6.7 6.7 6.8 8.0 9.0 8.5 7.0 6.8 6.8 6.9 6.8 6.6 6.2 5.9 5.2 5.4
6.8 6.5 6.5 6.5 6.5 6.5 6.9 6.9 7.1 7.0 7.1 7.3 7.7 8.9 9.3 9.4 9.3 9.1 9.1 8.9 9.4 9.5 9.9 9.7 8.9 9.3 7.8 9.5 9.0 9.4 9.2 6.9 8.8 8.8 7.7 8.0 8.5 9.3 9.3 7.0 6.6 6.5 6.6 6.4 6.3 6.3 5.9 6.6 8.6
6.8 6.5 6.5 6.8 7.2 7.6 7.2 6.9 7.5 6.8 6.5 7.3 7.3 8.3 9.0 9.1 9.1 9.1 9.2 9.3 9.5 9.6 9.6 8.1 8.3 8.0 9.4 9.3 8.2 6.8 9.4 9.0 7.7 7.6 9.6 9.1 9.0 9.1 9.5 7.5 7.8 7.8 6.6 8.7 7.4 7.4 6.3 9.5 9.5
6.6 6.9 7.0 7.0 7.7 7.3 6.9 7.6 6.9 7.1 6.9 8.1 8.4 8.8 8.9 8.9 9.0 9.0 9.1 9.3 9.4 9.4 9.6 8.4 8.7 9.4 9.4 9.6 8.1 9.7 9.6 9.5 9.6 9.5 9.5 9.4 9.7 9.6 8.9 9.6 9.6 9.2 7.5 9.6 8.6 9.5 9.5 9.6 9.6
6.5 6.6 7.3 7.7 7.2 7.4 7.6 7.0 6.8 7.2 8.1 8.2 8.7 8.8 8.8 8.9 9.0 9.2 9.3 9.5 9.4 9.5 9.6 9.7 9.8 9.7 9.6 9.0 9.7 9.6 9.7 9.7 9.5 9.5 9.7 9.2 9.3 8.4 9.0 9.1 8.3 9.0 9.1 9.6 9.1 9.0 9.2 8.9 9.7
7.1 7.1 6.6 7.5 6.8 7.4 6.7 6.9 7.3 7.5 8.0 8.1 8.3 8.6 8.8 8.9 9.0 9.0 9.2 9.2 9.3 9.4 9.5 9.7 9.7 9.6 9.6 9.0 9.6 9.3 9.5 9.6 9.7 9.6 9.5 9.6 9.6 8.8 9.0 8.6 8.6 9.0 8.8 9.1 8.9 6.8 8.4 8.2 9.2
7.4 6.5 6.5 6.8 7.3 6.6 7.3 6.5 6.5 7.7 8.1 7.6 8.1 8.5 8.7 8.8 9.1 8.9 9.2 9.2 9.5 9.6 9.6 9.6 9.7 9.7 9.7 9.6 9.5 9.7 9.4 9.2 9.7 9.5 9.5 9.5 9.5 9.6 9.3 9.2 6.6 8.9 8.7 8.6 9.5 9.6 9.5 9.0 9.6
6.5 6.5 6.5 6.5 6.7 7.1 6.9 6.5 6.6 8.0 7.9 7.6 7.9 8.1 8.4 8.7 9.0 9.2 9.4 9.4 9.6 9.5 9.4 9.6 10.0 9.9 9.8 9.7 8.5 9.2 8.2 7.5 8.1 9.5 9.5 9.5 8.7 9.5 8.5 8.4 7.9 9.5 9.1 8.0 8.6 8.7 8.1 9.6 7.7
6.5 6.5 6.5 6.5 6.8 6.5 6.5 6.5 6.3 7.9 7.7 7.6 7.6 8.1 8.4 8.5 8.8 9.1 9.4 9.5 9.5 9.5 9.4 9.5 9.7 9.7 9.6 9.6 9.6 8.9 9.0 8.3 8.6 9.3 9.0 9.6 9.5 8.4 8.5 8.6 8.9 8.7 9.1 8.0 7.6 8.3 8.8 8.6 8.0
6.5 6.5 6.5 6.5 6.5 6.5 6.5 6.5 6.5 7.3 7.1 7.4 7.3 7.8 8.2 8.4 8.7 9.1 9.4 9.5 9.6 9.6 9.5 9.5 9.7 9.5 9.6 9.7 9.6 9.5 9.9 8.8 9.1 8.6 8.1 8.6 9.3 9.5 8.4 9.4 9.4 7.9 7.9 7.1 8.1 8.1 6.6 5.9 9.1
6.5 6.5 6.5 6.5 6.5 6.5 6.5 6.5 6.5 6.9 6.7 6.3 7.2 7.5 8.0 8.3 8.5 8.9 9.1 9.5 9.6 9.6 9.4 9.4 9.4 9.4 9.6 9.6 9.4 9.5 9.5 9.6 7.7 8.2 8.8 9.3 9.5 9.5 8.2 9.1 9.2 9.1 7.4 6.7 9.6 8.6 8.8 8.5 9.3
6.5 6.5 6.5 6.5 6.5 6.5 6.5 6.5 6.5 7.0 6.8 6.5 6.3 7.5 7.6 8.0 8.2 8.4 8.7 9.1 9.5 9.3 9.3 9.3 9.3 9.3 9.5 9.7 9.4 9.5 9.0 9.7 8.3 7.7 9.6 9.6 9.5 9.2 9.1 9.2 8.4 8.9 5.9 9.0 9.5 7.4 8.2 9.4 8.5
6.5 6.5 6.5 6.5 6.5 6.5 6.5 6.5 6.5 6.6 7.0 7.0 6.8 7.8 7.9 7.7 7.9 7.9 8.1 8.7 9.3 9.2 9.3 9.3 9.3 9.3 9.4 9.6 9.6 9.6 8.7 9.3 9.5 8.3 9.6 9.5 9.5 9.5 9.5 8.4 8.6 9.0 7.9 8.8 8.7 8.8 6.2 6.5 9.3
6.5 6.5 6.5 6.5 6.5 6.5 6.5 6.5 6.5 6.5 6.5 6.6 7.0 7.0 7.9 7.8 7.7 8.2 8.4 8.4 9.2 9.2 9.5 9.3 9.4 9.3 9.4 9.5 9.3 8.1 8.9 8.9 9.2 8.7 7.1 8.4 9.5 9.5 9.5 9.5 9.5 8.4 7.3 7.5 9.0 9.5 8.5 8.3 6.7
6.5 6.5 6.5 6.5 6.5 6.5 6.5 6.5 6.5 6.5 6.5 6.5 6.7 7.2 7.1 7.7 8.0 8.2 8.5 8.5 9.2 9.3 9.5 9.5 9.4 9.3 9.3 8.8 8.0 9.2 7.4 7.0 9.0 5.5 8.3 6.8 9.0 9.6 9.6 9.5 9.5 8.1 8.1 8.9 9.5 9.1 8.3 7.0 8.4
6.5 6.5 6.5 6.5 6.5 6.5 6.5 6.5 6.5 6.5 6.5 6.5 6.8 7.4 7.5 6.6 8.2 7.9 8.3 8.3 9.2 9.4 9.5 9.4 9.2 9.0 9.3 9.0 7.9 9.0 9.0 8.4 7.2 8.0 9.0 7.9 8.8 9.7 9.4 9.6 9.4 8.9 9.3 9.5 9.3 9.6 8.8 8.3 8.5
6.5 6.5 6.5 6.5 6.5 6.5 6.5 6.5 6.5 6.5 6.5 6.6 6.7 7.2 5.9 7.3 7.6 7.9 7.5 8.0 8.9 9.0 9.1 9.3 9.1 8.4 8.7 9.1 9.1 8.6 9.2 9.1 9.1 9.1 9.3 6.8 5.6 7.7 7.9 8.2 9.1 9.3 8.1 9.2 9.5 8.7 9.0 8.4 8.9
6.5 6.5 6.5 6.5 6.5 6.5 6.5 6.5 6.5 6.5 7.3 7.5 7.7 7.5 8.0 8.1 7.5 7.4 8.5 8.5 7.9 9.0 9.1 9.2 9.0 8.9 8.4 8.5 8.8 9.1 9.2 9.5 9.5 9.3 8.1 7.0 6.4 7.1 8.3 8.7 9.5 9.5 9.5 9.5 9.2 9.5 9.5 9.4 9.4
6.5 6.5 6.5 6.5 6.5 6.5 6.5 6.5 6.5 6.5 6.4 7.0 7.2 7.6 7.6 8.0 8.0 7.7 8.3 7.6 8.5 8.7 8.9 9.0 9.0 9.0 9.2 9.2 8.9 8.5 9.0 8.0 9.4 9.4 9.3 9.7 8.5 7.5 9.7 9.6 9.6 9.5 9.5 9.5 8.9 9.3 9.3 9.1 8.5
6.5 6.5 6.5 6.5 6.5 6.5 6.5 6.5 6.5 6.5 6.5 6.5 6.8 7.1 7.7 7.9 5.8 4.0 5.9 8.6 8.5 8.5 9.2 9.3 9.3 9.1 9.2 9.4 9.4 9.4 9.3 9.2 8.2 9.5 9.3 9.3 9.3 9.6 5.2 9.6 8.7 9.5 9.6 9.5 9.3 8.9 9.1 9.0 9.5
6.5 6.5 6.5 6.5 6.5 6.5 6.5 6.5 6.5 6.5 6.5 6.5 6.9 7.2 7.2 7.5 7.5 6.2 7.7 5.1 4.9 9.0 9.2 9.3 9.4 9.2 9.3 9.4 9.4 9.4 9.4 9.5 9.4 9.4 9.5 9.5 9.5 9.5 9.5 9.5 9.4 9.4 9.4 9.5 9.1 8.9 8.1 9.2 9.2
6.5 6.5 6.5 6.5 6.5 6.5 6.5 6.5 6.5 6.5 7.1 7.1 7.1 7.3 7.6 7.7 7.5 5.4 4.6 3.5 3.6 2.9 4.3 8.6 9.4 9.5 9.4 9.3 9.3 9.4 9.3 9.4 9.4 9.3 9.5 9.5 9.4 9.6 9.5 9.5 9.3 9.3 9.5 9.5 9.1 9.2 9.4 9.3 9.2
Wind_Speed
13 13 10 6 4 2 4 5 5 7 14 8 12 12 13 19 11 10 21 19 23 20 21 19 16 15 13 15 11 14 14 13 11 10 11 11 10 12 12 13 13 14 14 14 16 16 17 18 17
16 8 5 3 6 3 1 5 6 5 12 17 11 14 14 15 13 21 20 21 22 22 23 20 17 15 12 14 11 14 14 13 11 11 13 11 11 12 12 12 13 13 14 15 15 15 17 16 17
13 11 3 2 3 3 3 3 7 15 18 14 14 15 11 11 23 18 23 21 22 19 24 21 18 15 12 13 13 13 14 13 13 13 12 13 13 13 13 12 14 14 13 14 15 15 16 16 17
7 3 5 6 5 1 2 7 11 17 16 11 15 15 9 15 16 22 22 20 19 19 27 21 17 16 13 13 13 13 14 14 14 14 14 15 14 14 14 13 13 12 13 15 11 14 16 16 16
8 4 5 2 4 4 6 8 17 12 11 15 15 16 20 13 22 21 19 17 17 19 22 20 17 16 13 13 13 13 13 14 14 14 13 15 15 14 14 13 14 13 13 16 16 17 16 16 15
2 4 1 4 8 7 8 9 9 9 12 15 22 19 10 10 22 19 18 16 16 18 21 18 14 15 13 13 13 13 12 13 14 14 13 13 13 14 14 13 14 13 13 15 17 17 16 16 15
5 6 3 11 13 9 12 6 4 14 15 10 12 17 14 20 19 18 16 14 9 23 19 18 18 14 13 13 13 13 13 13 12 13 13 12 12 13 13 14 14 14 14 15 16 16 16 14 13
8 3 4 7 11 7 11 5 2 7 9 6 14 11 21 22 20 17 17 18 2 14 15 18 20 18 18 15 13 12 12 12 12 12 13 15 14 14 15 16 14 14 15 15 16 15 15 15 12
7 3 3 2 13 10 10 7 2 3 9 9 2 21 24 23 20 18 14 19 5 8 12 19 15 21 16 17 14 13 11 14 14 11 11 16 13 15 13 17 13 13 14 14 13 13 15 15 16
4 2 8 5 6 15 12 9 8 6 6 9 11 24 25 22 19 18 18 17 16 13 12 11 15 12 16 16 11 13 12 7 7 3 15 11 16 16 16 13 12 11 12 11 9 12 15 17 13
4 2 7 12 13 16 16 8 7 11 10 13 19 25 24 23 18 18 16 15 15 13 13 15 9 11 14 14 12 15 12 16 9 6 11 11 15 17 16 15 14 13 12 9 10 8 13 4 7
4 11 12 10 16 11 13 14 9 12 4 16 17 23 24 23 19 17 16 14 15 11 11 17 11 7 12 13 15 10 14 12 11 12 7 6 9 8 5 9 9 5 14 5 9 11 7 8 7
8 4 7 16 8 9 13 10 11 7 5 14 19 23 22 20 18 15 15 13 13 12 11 14 11 8 8 6 9 13 9 12 13 11 4 5 11 5 6 5 9 3 6 7 9 6 5 6 7
6 12 9 11 7 16 11 14 10 8 5 16 21 23 22 20 19 15 15 13 13 11 12 14 12 12 9 3 9 8 9 11 11 12 9 4 11 7 7 2 2 9 4 8 5 10 2 8 6
8 8 9 8 17 14 14 15 9 14 13 17 22 22 20 19 18 15 15 14 13 12 11 13 13 14 10 10 9 6 11 7 12 14 10 6 8 3 1 5 11 8 6 4 4 1 2 3 6
13 14 12 10 13 12 10 11 17 19 19 19 22 20 18 19 18 15 14 14 15 12 11 11 12 13 12 10 6 3 11 3 5 15 12 8 6 3 4 4 1 6 4 9 5 2 2 1 6
14 14 12 12 12 12 12 14 10 14 18 20 18 20 18 17 16 15 15 14 15 13 12 12 11 12 11 10 9 6 5 6 4 5 12 6 7 4 6 1 8 6 4 8 4 5 4 1 3
18 18 13 16 12 12 17 11 20 14 14 18 17 20 19 18 18 16 16 15 15 14 13 12 11 12 9 8 6 7 7 2 10 1 14 7 8 5 6 5 4 6 5 6 4 4 6 6 2
12 17 22 17 15 21 13 14 17 14 8 7 16 16 19 20 17 18 16 15 15 14 14 13 12 11 9 8 8 6 7 7 3 8 8 4 6 5 4 6 5 8 2 5 3 4 3 3 1
16 18 9 14 13 12 19 17 20 19 16 10 5 12 16 20 19 16 14 16 15 15 15 13 12 12 10 8 6 4 1 7 5 12 9 4 5 5 6 3 5 2 4 4 1 4 5 4 5
18 13 14 12 7 13 12 10 22 17 17 18 17 18 19 17 20 16 13 13 15 16 15 14 13 13 11 8 6 3 4 1 4 6 7 8 5 5 2 4 2 2 2 4 4 3 7 5 5
20 18 12 10 14 13 16 3 15 17 15 12 21 20 18 19 15 18 18 15 17 16 15 15 14 14 12 9 9 10 7 8 5 5 4 7 6 5 4 5 3 3 6 3 5 3 4 5 5
16 16 11 12 14 11 19 5 6 12 16 11 11 19 17 19 18 19 19 16 18 17 15 15 14 12 12 11 9 8 8 3 8 6 8 3 7 6 7 6 6 3 6 4 3 2 3 1 6
17 17 13 12 13 13 14 13 7 7 16 19 11 10 7 8 20 17 17 17 17 18 16 15 15 13 12 12 11 9 6 7 5 6 6 6 6 8 7 7 5 7 6 5 4 3 3 4 6
16 13 11 12 14 11 17 10 5 9 12 9 10 8 15 15 9 17 18 16 18 20 18 16 16 15 15 14 13 13 10 8 7 3 5 4 5 4 11 9 7 7 7 3 4 4 5 3 4
19 20 13 14 14 15 13 11 10 12 14 12 10 4 11 22 16 16 21 19 14 20 20 17 17 16 16 15 13 11 12 9 8 8 4 5 4 2 13 8 9 8 8 9 7 5 6 7 5
19 20 24 15 16 15 13 15 15 10 14 9 9 8 5 14 20 16 20 15 20 16 20 18 16 16 16 17 13 13 12 12 9 8 9 7 4 3 9 10 8 10 10 8 6 7 7 4 5
12 17 20 9 17 17 15 18 13 11 9 9 9 11 12 9 19 13 7 22 14 15 18 18 17 16 16 16 14 13 14 13 11 8 8 7 6 6 5 7 7 7 8 9 7 6 7 6 6
11 13 18 14 15 13 12 8 13 14 9 8 8 10 11 15 16 14 14 13 10 20 20 19 18 17 15 15 14 13 13 14 12 11 11 10 9 9 6 6 8 8 9 8 7 8 2 8 7
10 13 17 12 19 13 6 7 12 13 14 11 9 10 11 14 14 14 14 17 17 15 12 17 18 17 16 13 12 13 11 11 13 12 12 11 10 10 10 10 9 10 10 9 10 11 9 9 8
Wind_Direction
186 191 219 213 243 106 314 355 164 128 102 120 99 94 71 30 46 92 138 133 134 131 130 132 126 122 121 121 121 133 107 105 103 106 110 102 91 94 88 91 92 91 88 83 89 91 92 96 97
192 168 229 255 256 131 191 187 157 103 113 110 112 106 90 61 103 126 126 137 137 133 139 133 126 123 125 118 109 99 103 106 105 93 96 97 99 87 90 92 91 91 90 91 93 95 98 99 96
252 203 287 234 248 156 68 116 131 113 129 133 113 60 50 100 119 124 125 142 136 139 125 123 127 129 127 111 109 105 100 94 101 96 97 93 96 98 96 92 88 87 90 95 98 99 97 94 97
203 236 250 248 127 16 68 130 144 140 116 127 113 90 93 127 124 121 140 149 135 131 112 131 132 126 119 108 109 103 99 97 100 96 97 99 95 92 93 91 93 98 94 94 101 109 96 96 96
245 232 247 74 63 156 175 166 140 118 134 137 87 99 117 97 115 135 148 139 134 113 122 130 133 125 118 109 107 99 97 97 91 93 90 94 92 95 98 101 99 97 95 102 103 102 99 100 101
288 259 314 125 103 150 131 131 113 109 118 97 100 112 104 151 136 143 147 137 131 125 130 132 129 124 117 110 104 98 96 97 98 96 92 95 101 100 101 108 104 97 96 100 102 105 99 98 101
230 276 311 107 117 139 135 100 132 141 137 112 129 115 139 147 145 150 141 121 129 129 121 133 131 125 122 113 109 103 101 100 102 103 104 102 102 105 106 103 99 99 94 101 104 103 101 99 104
237 246 296 137 144 120 134 95 352 136 64 70 127 139 147 144 154 145 139 116 221 121 136 132 145 143 144 126 115 111 114 116 113 124 131 130 126 121 122 117 101 100 97 105 113 112 114 116 122
269 286 46 22 128 148 141 130 72 11 135 221 133 141 140 147 153 148 139 107 113 146 132 123 134 103 112 127 123 125 131 131 132 146 165 172 134 121 122 87 107 103 98 108 119 132 136 147 151
245 323 21 71 143 145 159 136 127 152 142 117 138 129 141 152 158 152 159 153 156 143 147 100 90 130 150 129 148 135 132 137 125 178 185 180 63 88 102 113 119 125 127 132 161 172 169 174 156
134 302 66 82 116 140 148 147 138 147 192 147 139 145 152 153 164 159 158 155 144 155 130 104 102 196 149 107 181 147 154 119 116 234 102 127 124 142 131 142 149 146 179 151 185 186 225 94 22
217 215 101 109 111 156 148 150 146 196 63 146 154 153 156 159 168 158 154 156 141 134 126 117 163 181 113 144 189 130 125 136 136 89 112 128 114 116 45 116 110 116 174 131 6 82 69 105 42
248 232 102 115 106 146 156 165 152 149 151 143 153 161 162 162 158 170 147 150 138 146 152 123 128 101 126 242 117 90 147 112 116 154 137 118 94 85 87 56 109 205 106 119 64 78 116 54 93
233 242 145 156 158 151 160 158 142 125 149 143 158 163 169 164 159 170 156 153 148 158 151 125 139 127 149 105 95 169 100 140 134 123 102 95 115 120 134 61 40 118 45 71 39 154 249 91 124
225 218 194 181 162 146 169 158 131 137 138 155 167 166 168 165 161 168 157 153 159 164 151 143 143 144 149 136 165 146 157 159 125 109 135 103 131 63 120 155 166 104 104 156 151 2 124 143 97
233 232 186 157 165 143 144 157 144 144 146 163 166 166 169 169 162 166 163 161 153 165 157 159 154 151 153 149 212 120 102 174 10 141 146 143 117 146 255 170 191 121 174 352 104 22 64 117 161
210 206 181 146 163 165 187 136 129 160 156 164 168 163 172 170 166 166 167 168 153 152 162 169 149 158 164 150 172 156 103 131 128 132 126 139 147 165 290 278 108 215 177 192 106 145 27 102 36
197 232 188 151 174 173 121 152 158 165 166 175 176 174 172 172 171 170 168 165 161 154 163 171 163 149 171 165 176 160 157 159 154 298 105 160 149 150 259 120 135 72 267 10 96 29 170 203 134
241 209 209 141 168 165 156 160 145 163 185 235 181 178 176 176 173 170 168 165 162 161 163 171 169 155 176 169 187 160 163 164 133 118 121 161 125 135 231 169 193 181 170 215 112 178 176 293 50
245 219 189 135 185 128 246 162 143 165 180 183 201 204 190 177 170 178 168 169 170 167 167 170 175 164 190 179 221 190 253 165 160 127 139 197 149 154 174 326 117 263 303 115 294 131 299 116 73
231 221 134 167 191 244 154 141 141 165 181 182 181 218 205 202 176 173 171 184 167 164 171 173 178 168 198 187 207 200 319 202 196 143 169 168 186 181 271 204 56 266 236 181 182 261 57 305 97
207 234 168 157 190 197 211 95 175 163 175 185 197 212 191 192 193 177 175 199 168 166 173 168 179 174 188 205 193 144 221 210 180 185 133 141 178 177 179 166 173 224 66 236 153 221 310 34 322
235 203 164 194 217 179 193 122 285 203 160 156 268 202 210 169 192 183 182 205 169 166 173 167 177 183 182 196 247 176 233 140 223 70 135 86 152 179 182 190 187 209 269 102 53 99 307 135 280
233 169 194 225 238 235 233 196 149 240 149 146 190 252 203 183 186 178 191 190 182 167 176 172 174 185 196 193 208 239 234 267 329 169 163 188 174 170 188 196 204 202 235 175 197 207 233 324 342
224 189 192 206 217 228 208 190 64 92 72 89 142 225 205 235 182 192 187 181 190 173 180 176 178 187 193 195 200 212 226 251 263 258 230 359 204 211 155 183 192 201 221 199 223 185 283 218 275
217 207 206 194 205 206 204 142 118 96 82 36 11 294 302 188 205 185 184 177 193 183 180 184 179 192 198 202 204 203 211 218 224 206 259 304 164 299 148 167 191 222 192 208 192 219 232 188 211
194 227 229 228 211 211 136 95 108 110 84 53 29 359 311 193 188 195 179 201 165 208 181 186 185 194 202 206 203 207 205 224 222 239 201 236 230 202 193 169 194 205 204 212 190 249 191 201 219
270 214 233 236 252 211 142 161 141 138 83 57 34 20 358 332 57 18 292 173 189 194 188 188 194 197 205 211 207 208 210 211 219 221 232 251 251 242 121 203 186 191 214 213 219 235 187 207 233
209 238 235 243 254 206 150 115 105 123 102 76 47 29 22 30 35 39 16 31 333 189 185 187 197 197 200 205 209 213 209 209 211 214 218 223 236 255 229 244 225 204 222 213 209 255 264 199 220
295 224 222 241 228 271 304 96 105 118 109 92 66 51 44 48 54 45 38 34 21 23 350 188 195 199 201 205 202 214 220 214 206 214 214 215 223 227 235 225 213 226 234 230 204 228 240 220 218